• MPC Preparation (Info)

  • MPEC 2014-U62 : 2014 UX34

    The following Minor Planet Electronic Circular may be linked-to from your own Web pages, but must not otherwise be redistributed electronically.

    A form allowing access to any MPEC is at the bottom of this page.


    Read MPEC 2014-U61 Read MPEC 2014-U63


    M.P.E.C. 2014-U62                                Issued 2014 Oct. 25, 16:00 UT
    
         The Minor Planet Electronic Circulars contain information on unusual
             minor planets and routine data on comets.  They are published
       on behalf of Commission 20 of the International Astronomical Union by the
              Minor Planet Center, Smithsonian Astrophysical Observatory,
                              Cambridge, MA 02138, U.S.A.
    
                 Prepared using the Tamkin Foundation Computer Network
    
                                  MPC@CFA.HARVARD.EDU
                URL https://www.minorplanetcenter.net/    ISSN 1523-6714
    
                                       2014 UX34
    
    Observations:
         K14U34X* C2014 10 23.33075 03 18 16.55 -21 16 58.9          18.4 VqEU062703
         K14U34X  C2014 10 23.33974 03 18 08.21 -21 18 07.6          18.3 VqEU062703
         K14U34X  C2014 10 23.34426 03 18 03.98 -21 18 41.2          18.3 VqEU062703
         K14U34X  C2014 10 23.40710 03 17 06.27 -21 26 25.9          18.5 VqEU062703
         K14U34X  C2014 10 23.40760 03 17 05.79 -21 26 29.8          18.6 VqEU062703
         K14U34X  C2014 10 23.40810 03 17 05.36 -21 26 33.6                qEU062703
         K14U34X  C2014 10 23.40860 03 17 04.88 -21 26 37.6          18.4 VqEU062703
         K14U34X  C2014 10 23.60857 03 14 21.15 -21 50 08.9          18.6 VqEU062900
         K14U34X  C2014 10 23.61592 03 14 14.92 -21 50 59.6          18.5 VqEU062900
         K14U34X  C2014 10 23.62327 03 14 08.65 -21 51 49.5          18.5 VqEU062900
         K14U34X KC2014 10 24.01512 03 09 07.44 -22 32 56.1          18.6 VqEU062I93
         K14U34X KC2014 10 24.02428 03 09 00.51 -22 33 49.8          18.8 VqEU062I93
         K14U34X KC2014 10 24.03369 03 08 53.43 -22 34 44.3          18.8 VqEU062I93
         K14U34X |C2014 10 24.17521 03 07 15.65 -22 46 18.8          18.9 VuEU062807
         K14U34X |C2014 10 24.17866 03 07 13.16 -22 46 37.7          19.0 VuEU062807
         K14U34X |C2014 10 24.18086 03 07 11.56 -22 46 50.3          19.0 VuEU062807
         K14U34X |C2014 10 25.25973 02 56 22.53 -24 09 42.8          19.1 VuEU062807
         K14U34X |C2014 10 25.26275 02 56 20.87 -24 09 54.2          19.3 VuEU062807
         K14U34X |C2014 10 25.26577 02 56 19.20 -24 10 05.8          19.2 VuEU062807
         K14U34X KC2014 10 25.32195 02 55 51.64 -24 14 57.5          19.5 RqEU062448
         K14U34X KC2014 10 25.33440 02 55 44.93 -24 15 43.9          19.0 RqEU062448
         K14U34X KC2014 10 25.34819 02 55 37.54 -24 16 34.9          18.5 RqEU062448
    
    Observer details:
    448 Desert Moon Observatory.  Observer B. L. Stevens.  0.3-m
        Schmidt-Cassegrain + CCD.
    703 Catalina Sky Survey.  Observer R. E. Hill.  Measurers E. J. Christensen,
        A. R. Gibbs, A. D. Grauer, R. E. Hill, J. A. Johnson, R. A. Kowalski,
        S. M. Larson, F. C. Shelly.  0.68-m Schmidt + CCD.
    807 Cerro Tololo.  Observers T. Linder, R. Holmes.  0.41-m f/11
        Ritchey-Chretien + CCD.
    900 Moriyama.  Observer Y. Ikari.  0.26-m f/7.0 reflector + CCD.
    I93 St Pardon de Conques.  Observer F. Losse.  0.40-m f/3.7 reflector + CCD.
    
    Orbital elements:
    2014 UX34                                                Earth MOID = 0.0025 AU
    Epoch 2014 Dec. 9.0 TT = JDT 2457000.5                  MPC
    M  44.35359              (2000.0)            P               Q
    n   0.43966186     Peri.   89.77139     +0.36701675     +0.89889392
    a   1.7128665      Node   206.17871     -0.90907349     +0.40114378
    e   0.6465597      Incl.   32.85615     +0.19719051     +0.17627648
    P   2.24           H   22.4           G   0.15           U   6
    Residuals in seconds of arc
    141023 703  0.1+  0.3+    141023 900  0.1+  0.2-    141025 807  0.1+  0.0
    141023 703  0.5+  0.3-    141023 900  0.1-  0.0     141025 807  0.2+  0.1+
    141023 703  0.0   0.1+    141024 I93  0.1+  0.1+    141025 807  0.1+  0.1-
    141023 703  0.1+  0.3+    141024 I93  0.1-  0.1-    141025 448  0.9-  0.2-
    141023 703  0.2-  0.1+    141024 I93  0.0   0.1+    141025 448  0.2-  0.0
    141023 703  0.1+  0.1-    141024 807  0.1-  0.1-    141025 448  0.7+  0.2+
    141023 703  0.3-  0.5-    141024 807  0.2+  0.3+
    141023 900  0.4-  0.2+    141024 807  0.2+  0.0
    
    Ephemeris:
    2014 UX34                a,e,i = 1.71, 0.65, 33                  q = 0.6054
    Date    TT    R. A. (2000) Decl.     Delta      r     Elong.  Phase     V
    2014 09 25    13 26 35.0 +30 30 39   0.3499  0.7516    36.6   127.3    25.0
    ...
    2014 10 10    12 49 37.6 +35 23 58   0.1260  0.9089    41.9   132.8    23.7
    ...
    2014 10 18    07 40 57.8 +24 14 00   0.03000 0.9977    91.4    86.9    17.8
    ...
    2014 10 24    03 09 18.1 -22 29 51   0.08756 1.0644   141.1    35.9    18.7
    2014 10 25    02 58 43.3 -23 52 30   0.1015  1.0755   141.1    35.5    19.0
    2014 10 26    02 50 32.1 -24 52 06   0.1157  1.0865   140.9    35.2    19.3
    ...
    2014 11 01    02 24 52.0 -27 22 18   0.2031  1.1524   138.4    34.9    20.7
    ...
    2014 11 09    02 12 27.5 -27 43 25   0.3233  1.2385   134.4    34.9    21.9
    ...
    2014 11 24    02 06 47.7 -26 02 20   0.5586  1.3933   126.4    34.8    23.3
    
    A. U. Tomatic                (C) Copyright 2014 MPC           M.P.E.C. 2014-U62
    

    Read MPEC 2014-U61 Read MPEC 2014-U63


    MPEC number:

    Enter an MPEC number in one of the following forms:

    • 1997-B01 (the full form)
    • J97B01 (the packed version of the full form)
    • B01 (the abbreviated form)